RH
74 68 66 60 55 57 54 52 47 44 42 42 39 35 32 30 28 25 21 19 18 16 15 15 14 14 14 14 13 12 14 14 14 14 19 29 36 38 42 48 48 57 54
71 64 60 58 56 53 50 46 43 42 40 39 36 32 28 24 21 16 14 14 14 13 13 11 10 8 9 9 11 12 14 15 16 18 21 25 30 38 38 36 37 37 40
62 62 58 58 53 49 46 42 43 41 39 33 30 26 22 20 17 12 10 10 11 14 13 11 9 7 7 8 10 13 16 19 20 22 23 25 27 30 36 37 38 37 38
58 57 58 58 47 44 42 41 40 37 32 28 24 21 19 15 11 8 9 12 15 16 15 14 12 11 11 11 12 12 12 15 20 22 24 27 27 31 33 35 37 39 41
60 58 56 49 43 42 42 38 34 28 26 24 21 18 14 9 8 9 13 17 17 18 17 17 17 17 16 16 17 17 16 16 16 18 24 28 31 37 39 30 38 52 55
57 55 46 40 41 43 36 29 25 23 20 19 18 11 9 11 11 13 17 18 19 20 21 22 22 24 26 26 26 24 22 21 21 21 19 23 31 32 35 31 37 44 55
48 44 38 40 36 26 24 23 20 18 16 14 9 7 11 14 16 18 21 22 23 24 26 26 26 26 27 26 26 28 29 28 27 26 26 26 25 26 25 24 26 33 53
38 31 25 22 21 21 20 17 16 12 10 9 9 14 18 21 24 26 27 29 29 29 29 27 26 27 27 27 27 28 28 29 31 33 34 35 34 33 33 30 34 34 41
20 17 17 17 17 15 13 12 10 8 8 12 17 20 25 27 29 30 31 31 30 30 30 30 29 28 28 29 29 28 28 29 31 33 37 38 41 42 47 45 42 44 47
17 16 15 13 10 8 9 8 10 14 18 21 24 29 30 31 33 32 32 32 33 35 36 37 35 34 34 33 32 32 30 29 30 33 36 37 38 40 46 50 46 43 41
15 14 13 11 10 9 12 16 20 22 25 27 29 32 33 32 33 36 37 37 39 38 40 39 37 39 39 38 36 37 36 33 31 29 30 31 34 36 39 41 41 35 32
16 17 16 14 15 17 21 24 27 30 31 31 33 32 33 34 36 37 39 42 44 44 46 45 43 44 44 44 42 40 38 36 34 33 32 30 29 30 34 35 36 34 28
24 25 23 20 23 26 29 29 32 36 42 45 43 41 41 41 39 39 41 44 47 49 50 50 50 49 48 47 46 46 45 39 38 33 31 29 31 29 27 28 30 33 33
34 32 32 26 28 29 32 35 41 48 54 53 53 50 47 45 45 44 44 46 51 54 53 52 52 54 52 51 51 49 48 44 43 39 39 39 34 32 30 27 26 25 28
32 35 36 34 30 38 41 44 50 54 56 57 55 54 52 54 50 49 50 53 56 56 52 49 49 51 49 49 44 47 49 48 46 45 46 46 38 34 30 29 26 23 23
34 36 40 41 36 46 48 49 51 53 55 52 53 55 57 56 55 57 60 63 63 62 54 52 50 50 47 45 43 41 44 44 47 47 49 50 44 39 40 33 28 24 23
40 42 47 55 53 52 63 65 64 64 65 61 55 57 60 61 64 68 70 69 61 57 52 50 48 47 45 44 42 44 46 45 43 41 42 44 41 37 35 35 38 35 31
45 51 58 62 85 79 91 84 81 80 65 62 66 71 71 73 74 73 71 66 57 54 52 50 46 43 43 41 41 41 40 41 43 43 42 40 38 37 35 38 30 31 36
56 58 71 89 90 80 98 85 81 73 71 76 78 81 76 75 75 71 66 62 55 51 48 44 40 39 38 38 39 40 40 40 39 36 36 39 35 35 34 37 35 35 31
61 69 80 84 87 90 82 76 72 71 77 79 79 77 77 74 69 67 64 57 47 46 43 39 38 36 37 36 36 34 34 35 36 34 34 33 34 37 38 39 38 36 33
68 71 72 74 79 82 75 74 71 77 79 81 80 78 74 70 64 57 50 48 48 45 40 37 39 39 38 38 36 34 37 40 39 37 38 39 38 40 44 45 48 50 49
73 66 67 70 70 70 68 70 77 84 83 77 74 73 67 59 54 50 49 47 43 41 42 44 43 40 39 40 38 33 33 33 39 45 46 46 45 44 45 46 48 52 55
67 66 64 64 65 67 71 73 68 66 67 69 68 63 56 51 49 47 45 47 48 47 46 45 46 46 47 48 49 45 41 43 41 39 44 50 48 48 52 52 50 49 50
54 52 53 55 56 59 61 63 64 65 66 61 56 51 51 51 49 50 50 48 49 47 48 48 44 40 39 39 37 33 36 39 41 38 36 33 37 39 41 44 45 42 44
55 54 56 59 60 60 58 58 59 58 55 54 54 54 52 49 48 49 54 56 58 51 46 48 43 30 32 33 38 38 40 41 43 46 41 40 38 34 33 34 36 37 36
53 52 57 62 62 62 59 56 55 54 51 50 51 52 50 51 52 62 60 50 53 51 43 45 40 28 30 34 38 41 43 46 49 50 50 45 44 38 38 35 39 40 39